Wattisham, United Kingdom

8:19 AM BST on June 23, 2017 (GMT +0100)
Wattisham Army

Weather History for EGUW - October, 2011

Change the Weather History Date:

Sunday, October 9, 2011

  Actual Average Record
Temperature  
Mean Temperature 59 °F -  
Max Temperature 68 °F - - ()
Min Temperature 50 °F - - ()
Degree Days  
Heating Degree Days 6    
Growing Degree Days 9 (Base 50)    
Moisture  
Dew Point 57 °F    
Average Humidity 88    
Maximum Humidity 100    
Minimum Humidity 73    
Precipitation  
Precipitation 0.04 in - - ()
Sea Level Pressure  
Sea Level Pressure 30.01 in    
Wind  
Wind Speed 9 mph ()    
Max Wind Speed 21 mph    
Max Gust Speed -    
Visibility 4.8 miles    
Events Rain    
T = Trace of Precipitation, MM = Missing Value Source: Averaged Metar Reports

Daily Weather History Graph

Daily Weather History Graph

Search for Another Location

Airport or City:

Trip Planner

Search our weather history database for the weather conditions in past years. The results will help you decide how hot, cold, wet, or windy it might be!

Date:

Astronomy

Oct. 09, 2011 Rise Set
Actual Time 7:09 AM BST 6:16 PM BST
Civil Twilight 6:35 AM BST 6:49 PM BST
Nautical Twilight 5:56 AM BST 7:29 PM BST
Astronomical Twilight 5:17 AM BST 8:08 PM BST
Moon 4:56 PM BST (10/9) 4:26 AM BST (10/9)
Length of Visible Light 12h 14m
Length of Day
11h 06m
Waxing Gibbous, 94% of the Moon is Illuminated
Oct 9
Waxing Gibbous
Oct 12
Full
Oct 20
Last Quarter
Oct 26
New
Nov 2
First Quarter

Hourly Weather History & Observations

Time (BST) Temp. Dew Point Humidity Pressure Visibility Wind Dir Wind Speed Gust Speed Precip Events Conditions
12:50 AM 53 °F 52 °F 93% 30.09 in 2 mi South 3.5 mph - - Rain Drizzle
12:50 AM 51.8 °F 51.8 °F 100% 30.06 in 1.7 mi South 3.5 mph - N/A   Drizzle
1:50 AM 53.6 °F 51.8 °F 94% 30.06 in 1.2 mi SW 4.6 mph - N/A Rain Light Rain
2:50 AM 55.4 °F 53.6 °F 94% 30.06 in 1.7 mi WSW 6.9 mph - N/A   Light Drizzle
3:50 AM 55 °F 54 °F 96% 30.05 in 3 mi SW 8.1 mph - - Rain Drizzle
3:50 AM 55.4 °F 53.6 °F 94% 30.04 in - SW 8.1 mph - N/A   Drizzle
4:50 AM 55.4 °F 53.6 °F 94% 30.04 in 1.7 mi WSW 8.1 mph - N/A   Light Drizzle
5:50 AM 55.4 °F 55.4 °F 100% 30.01 in - WSW 9.2 mph - N/A Rain Rain
6:50 AM 56 °F 55 °F 96% 30.03 in 3 mi WSW 9.2 mph - - Rain Rain
6:50 AM 55.4 °F 55.4 °F 100% 30.01 in - WSW 9.2 mph - N/A Rain Rain
7:50 AM 57.2 °F 55.4 °F 94% 30.01 in 4.3 mi WSW 8.1 mph - N/A Rain Light Rain
8:50 AM 59.0 °F 57.2 °F 94% 30.01 in 6.2 mi WSW 9.2 mph - N/A Rain Rain
9:50 AM 60 °F 58 °F 93% 30.03 in 22 mi WSW 10.4 mph - - Rain Rain
9:50 AM 60.8 °F 59.0 °F 94% 30.01 in 6.2 mi WSW 10.4 mph - N/A   Mostly Cloudy
10:50 AM 62.6 °F 59.0 °F 88% 30.01 in 6.2 mi WSW 13.8 mph - N/A   Scattered Clouds
11:50 AM 64.4 °F 59.0 °F 83% 30.01 in 6.2 mi WSW 17.3 mph - N/A   Mostly Cloudy
12:50 PM 65 °F 59 °F 75% 30.00 in 25 mi West 18.4 mph - -   Scattered Clouds
12:50 PM 66.2 °F 59.0 °F 78% 29.98 in 6.2 mi West 18.4 mph - N/A   Partly Cloudy
1:50 PM 66.2 °F 59.0 °F 78% 29.98 in 6.2 mi WSW 18.4 mph - N/A   Unknown
3:50 PM 65 °F 58 °F 73% 29.96 in 31 mi WSW 18.4 mph - -   Scattered Clouds
3:50 PM 64.4 °F 59.0 °F 83% 29.95 in 6.2 mi WSW 18.4 mph - N/A   Partly Cloudy
4:50 PM 64.4 °F 59.0 °F 83% 29.95 in 6.2 mi WSW 19.6 mph - N/A   Scattered Clouds
5:50 PM 64.4 °F 59.0 °F 83% 29.98 in 6.2 mi WSW 20.7 mph - N/A   Scattered Clouds
6:50 PM 63 °F 58 °F 78% 30.00 in 28 mi West 17.3 mph - -   Mostly Cloudy
6:50 PM 62.6 °F 57.2 °F 82% 29.98 in 6.2 mi West 17.3 mph - N/A   Scattered Clouds
7:50 PM 62.6 °F 57.2 °F 82% 30.01 in 6.2 mi West 16.1 mph - N/A   Partly Cloudy
8:50 PM 62.6 °F 57.2 °F 82% 30.01 in 6.2 mi West 20.7 mph - N/A   Unknown
9:50 PM 62 °F 58 °F 81% 30.01 in 25 mi WSW 17.3 mph - -   Mostly Cloudy
9:50 PM 60.8 °F 57.2 °F 88% 30.01 in 6.2 mi WSW 17.3 mph - N/A   Mostly Cloudy
11:50 PM 60.8 °F 57.2 °F 88% 30.01 in 6.2 mi WSW 13.8 mph - N/A   Mostly Cloudy